FW8987 Weather Reports


time (UTC)temp
C
wind
direction
speed
KPH
gust
KPH
rain 1hr
cm
rain 24hr
cm
rain mn
cm
humidity
%
barometer
mb
20260905135017 15 131 3.2 6.4 0.00 0.00 0.00 83 1001.8
20260905134033 15 93 4.8 14.5 0.00 0.00 0.00 80 1001.7
20260905133049 16 93 4.8 11.3 0.00 0.00 0.00 79 1001.5
20260905132022 15 116 3.2 6.4 0.00 0.00 0.00 79 1001.4
20260905131058 15 112 3.2 9.7 0.00 0.00 0.00 83 1001.3
20260905130033 14 135 1.6 4.8 0.00 0.00 0.00 85 1001.2
20260905125029 14 113 3.2 9.7 0.00 0.00 0.00 85 1001.1
20260905124044 14 102 4.8 9.7 0.00 0.00 0.00 83 1000.9
20260905123040 15 57 4.8 12.9 0.00 0.00 0.00 78 1000.9
20260905122035 15 70 4.8 16.1 0.00 0.00 0.00 74 1000.8
20260905121030 16 96 1.6 6.4 0.00 0.00 0.00 68 1000.6
20260905120105 16 142 0.0 3.2 0.00 0.00 0.00 68 1000.4
20260905115021 16 153 1.6 4.8 0.00 0.00 0.00 69 1000.2
20260905114016 16 131 1.6 4.8 0.00 0.00 0.00 70 1000.2
20260905113032 16 119 1.6 4.8 0.00 0.00 0.00 69 1000.2
20260905112027 16 143 1.6 4.8 0.00 0.00 0.00 69 1000.1
20260905111021 16 104 3.2 4.8 0.00 0.00 0.00 70 1000.1
20260905110037 16 147 1.6 6.4 0.00 0.00 0.00 68 999.9
20260905105032 16 129 1.6 4.8 0.00 0.00 0.00 66 999.9
20260905104048 16 91 3.2 9.7 0.00 0.00 0.00 64 999.8
20260905103023 16 142 3.2 11.3 0.00 0.00 0.00 61 999.7
20260905102019 16 88 3.2 6.4 0.00 0.00 0.00 62 999.6
20260905101035 16 175 1.6 4.8 0.00 0.00 0.00 65 999.6
20260905100029 16 39 1.6 9.7 0.00 0.00 0.00 65 999.4
20260905095024 15 147 1.6 3.2 0.00 0.00 0.00 72 999.4
20260905094020 15 121 1.6 6.4 0.00 0.00 0.00 75 999.3
20260905093016 15 0.0 0.0 0.00 0.00 0.00 79 999.1
20260905092032 14 175 1.6 1.6 0.00 0.00 0.00 80 999.2
20260905091047 13 173 1.6 3.2 0.00 0.00 0.00 83 999.2
20260905090023 13 0.0 0.0 0.00 0.00 0.00 86 999.1
20260905085019 12 0.0 0.0 0.00 0.00 0.00 87 999.0
20260905084034 12 196 0.0 1.6 0.00 0.00 0.00 88 999.0
20260905083030 12 205 0.0 3.2 0.00 0.00 0.00 89 998.9
20260905082046 12 204 1.6 3.2 0.00 0.00 0.00 90 998.7
20260905081021 12 205 1.6 3.2 0.00 0.00 0.00 89 998.7
20260905080016 12 209 1.6 4.8 0.00 0.00 0.00 89 998.7
20260905075032 11 225 3.2 6.4 0.00 0.00 0.00 89 998.6
20260905074027 11 223 3.2 6.4 0.00 0.00 0.00 89 998.7
20260905073023 11 233 3.2 4.8 0.00 0.00 0.00 89 998.6
20260905072018 11 228 3.2 4.8 0.00 0.00 0.00 90 998.6
20260905071033 11 217 3.2 4.8 0.00 0.00 0.00 90 998.5
20260905070048 11 232 3.2 6.4 0.00 0.00 0.00 90 998.4
20260905065024 11 245 4.8 9.7 0.00 0.00 0.00 91 998.2
20260905064019 11 238 4.8 9.7 0.00 0.00 0.00 91 998.1
20260905063034 10 220 1.6 4.8 0.00 0.00 0.00 93 998.1
20260905062030 10 218 0.0 3.2 0.00 0.00 0.00 94 998.1
20260905061026 9 212 1.6 3.2 0.00 0.00 0.00 95 997.9
20260905060041 9 220 1.6 4.8 0.00 0.00 0.00 95 997.9
20260905055016 9 229 0.0 3.2 0.00 0.00 0.00 96 997.9
20260905054032 8 198 1.6 3.2 0.00 0.00 0.00 98 997.8
20260905053027 8 0.0 0.0 0.00 0.00 0.00 99 997.6
20260905052042 7 0.0 0.0 0.00 0.00 0.00 99 997.7
20260905051017 7 0.0 0.0 0.00 0.00 0.00 99 997.6
20260905050054 7 0.0 0.0 0.00 0.00 0.00 99 997.6
20260905045048 6 0.0 0.0 0.00 0.00 0.00 99 997.6
20260905044023 6 204 0.0 1.6 0.00 0.00 0.00 99 997.6
20260905043038 6 0.0 0.0 0.00 0.00 0.00 99 997.6
20260905042033 6 0.0 0.0 0.00 0.00 0.00 99 997.4
20260905041029 6 0.0 0.0 0.00 0.00 0.00 99 997.6
20260905040024 6 0.0 0.0 0.00 0.00 0.00 99 997.6
20260905035039 6 0.0 0.0 0.00 0.00 0.00 99 997.5
20260905034034 6 217 0.0 1.6 0.00 0.00 0.00 99 997.4
20260905033030 6 198 0.0 1.6 0.00 0.00 0.00 99 997.5
20260905032025 6 0.0 0.0 0.00 0.00 0.00 99 997.3
20260905031021 6 0.0 0.0 0.00 0.00 0.00 99 997.2
20260905030036 6 203 0.0 1.6 0.00 0.00 0.00 99 997.3
20260905025031 6 0.0 0.0 0.00 0.00 0.00 99 997.3
20260905024026 7 197 0.0 1.6 0.00 0.00 0.00 99 997.2
20260905023022 7 198 0.0 1.6 0.00 0.00 0.00 99 997.2
20260905022017 7 227 1.6 4.8 0.00 0.00 0.00 99 997.2
20260905021032 7 0.0 0.0 0.00 0.00 0.00 99 997.0
20260905020027 7 210 0.0 3.2 0.00 0.00 0.00 99 997.0
20260905015043 7 202 0.0 1.6 0.00 0.00 0.00 99 996.9
20260905014018 7 213 0.0 3.2 0.00 0.00 0.00 99 996.9
20260905013033 7 205 0.0 3.2 0.00 0.00 0.00 99 996.8
20260905012048 7 201 0.0 1.6 0.00 0.00 0.00 99 997.0
20260905011023 7 220 1.6 3.2 0.00 0.00 0.00 99 996.9
20260905010018 7 209 0.0 1.6 0.00 0.00 0.00 99 996.8
20260905005035 7 209 0.0 1.6 0.00 0.00 0.00 99 996.8
20260905004030 7 0.0 0.0 0.00 0.00 0.00 99 996.8
20260905003025 7 0.0 0.0 0.00 0.00 0.00 99 996.7
20260905002020 7 219 1.6 3.2 0.00 0.00 0.00 99 996.9
20260905001015 7 207 1.6 3.2 0.00 0.00 0.00 99 996.8
20260905000031 7 210 1.6 3.2 0.00 0.00 0.00 99 996.8
20260904235026 7 190 0.0 3.2 0.00 0.00 0.00 99 996.8
20260904234042 7 210 0.0 3.2 0.00 0.00 0.00 99 996.8
20260904233037 7 211 0.0 3.2 0.00 0.00 0.00 99 996.8
20260904232032 7 221 1.6 3.2 0.00 0.00 0.00 99 996.9
20260904231027 7 216 0.0 3.2 0.00 0.00 0.00 99 996.8
20260904230043 7 211 1.6 3.2 0.00 0.00 0.00 99 996.8
20260904225138 8 223 0.0 1.6 0.00 0.00 0.00 99 996.8
20260904224034 8 206 0.0 1.6 0.00 0.00 0.00 99 996.9
20260904223029 8 206 0.0 1.6 0.00 0.00 0.00 99 996.9
20260904222025 8 219 1.6 4.8 0.00 0.00 0.00 99 996.9
20260904221019 8 218 0.0 1.6 0.00 0.00 0.00 99 996.8
20260904220055 7 0.0 0.0 0.00 0.00 0.00 99 996.9
20260904215030 7 0.0 0.0 0.00 0.00 0.00 99 997.0
20260904214025 7 0.0 0.0 0.00 0.00 0.00 99 996.8
20260904213021 8 0.0 0.0 0.00 0.00 0.00 99 997.0
20260904212016 8 0.0 0.0 0.00 0.00 0.00 99 996.9
20260904211033 8 0.0 0.0 0.00 0.00 0.00 98 996.9
20260904210128 8 0.0 0.0 0.00 0.00 0.00 98 997.0
20260904205022 8 0.0 0.0 0.00 0.00 0.00 98 996.9
20260904204019 8 0.0 0.0 0.00 0.00 0.00 98 997.1
20260904203054 8 0.0 0.0 0.00 0.00 0.00 97 997.1
20260904202030 8 0.0 0.0 0.00 0.00 0.00 97 997.0
20260904201025 9 0.0 0.0 0.00 0.00 0.00 97 997.1
20260904200020 9 0.0 0.0 0.00 0.00 0.00 96 997.3
20260904195016 9 0.0 0.0 0.00 0.00 0.00 96 997.3
20260904194031 10 0.0 0.0 0.00 0.00 0.00 95 997.1
20260904193046 10 0.0 0.0 0.00 0.00 0.00 95 997.2
20260904192021 10 0.0 0.0 0.00 0.00 0.00 94 997.2
20260904191035 10 196 0.0 1.6 0.00 0.00 0.00 94 997.2
20260904190030 10 0.0 0.0 0.00 0.00 0.00 93 997.2
20260904185026 10 0.0 0.0 0.00 0.00 0.00 93 997.2
20260904184021 11 0.0 0.0 0.00 0.00 0.00 92 997.3
20260904183016 11 0.0 0.0 0.00 0.00 0.00 92 997.3
20260904182032 10 0.0 0.0 0.00 0.00 0.00 92 997.4
20260904181027 11 0.0 0.0 0.00 0.00 0.00 92 997.2
20260904180022 11 0.0 0.0 0.00 0.00 0.00 90 997.3
20260904175018 11 0.0 0.0 0.00 0.00 0.00 90 997.3
20260904174032 11 0.0 0.0 0.00 0.00 0.00 89 997.3
20260904173027 12 0.0 0.0 0.00 0.00 0.00 88 997.4
20260904172022 12 0.0 0.0 0.00 0.00 0.00 87 997.4
20260904171017 12 172 0.0 1.6 0.00 0.00 0.00 86 997.4
20260904170052 12 0.0 0.0 0.00 0.00 0.00 87 997.4
20260904165028 13 179 0.0 1.6 0.00 0.00 0.00 84 997.4
20260904164043 13 114 3.2 6.4 0.00 0.00 0.00 82 997.5
20260904163018 13 129 3.2 6.4 0.00 0.00 0.00 82 997.4
20260904162033 13 134 3.2 4.8 0.00 0.00 0.00 81 997.4
20260904161029 13 138 1.6 4.8 0.00 0.00 0.00 80 997.4
20260904160025 13 117 3.2 6.4 0.00 0.00 0.00 79 997.5
20260904155020 14 121 1.6 6.4 0.00 0.00 0.00 78 997.5
20260904154035 14 106 4.8 9.7 0.00 0.00 0.00 78 997.5
20260904153031 15 113 3.2 9.7 0.00 0.00 0.00 77 997.5
20260904152106 15 118 3.2 6.4 0.00 0.00 0.00 77 997.6
20260904151022 15 138 1.6 9.7 0.00 0.00 0.00 77 997.6
20260904150016 15 111 3.2 11.3 0.00 0.00 0.00 76 997.7
20260904145032 15 112 3.2 6.4 0.00 0.00 0.00 75 997.6
20260904144028 15 102 6.4 12.9 0.00 0.00 0.00 75 997.6
20260904143103 16 88 3.2 9.7 0.00 0.00 0.00 74 997.8
20260904142038 16 129 1.6 4.8 0.00 0.00 0.00 74 997.7
20260904141034 16 153 1.6 4.8 0.00 0.00 0.00 73 997.7
20260904140049 16 126 3.2 6.4 0.00 0.00 0.00 70 997.8